DMC3-FM3

Last updated on Mon Jun 22 2026 00:02:57 GMT+0000 (Coordinated Universal Time)

1 40717U 15032C 26172.56102530 -.00000160 00000+0 -12501-4 0 9991 2 40717 97.6560 40.8963 0006592 53.3530 306.8291 14.85735864590560
UTC large
Height (km)
Speed (km/s)
/
Latitude / Longitude
Inclination (degrees)
Orbital Period (minutes)
Azimuth
Elevation
Range (km)
Doppler Factor

Next 0 passes for location: London (51.5072 / 0.1276)

No passes found over London.
DMC3-FM3